Location: Mahannah Oil Field
(37.4664°N, 96.6003°W)
Time: 16:36:29
(UTC+00:00)

Vanguard 2 Rocket - Pass Details

Date: 20 June 2021
Orbit: 554 x 3325 km, 32.9° (Epoch: 24 July)

Event Time Altitude Azimuth Distance (km) Brightness Sun altitude
Rises 06:37:46 0° 280° (W) 6,604 11.4 -29.1°
Reaches altitude 10° 06:42:57 10° 276° (W) 5,192 10.7 -29.0°
Enters shadow 06:54:51 44° 222° (SW) 2,255 8.4 -28.8°
